Tracking 29892 objects as of 21-Nov-2024
HD Live streaming from Space Station
objects crossing your sky now

ONEWEB-0535

Track ONEWEB-0535 now!
10-day predictions
ONEWEB-0535 is classified as:


NORAD ID: 54147
Int'l Code: 2022-138AL
Perigee: 1,191.7 km
Apogee: 1,194.1 km
Inclination: 87.9 °
Period: 109.1 minutes
Semi major axis: 7563 km
RCS: Unknown
Launch date: October 22, 2022
Source: United Kingdom (UK)
Launch site: SRIHARIKOTA (SRI)
Your satellite tracking list
Your tracking list is empty




NASA's NSSDC Master Catalog

Two Line Element Set (TLE):
1 54147U 22138AL  24324.53962814 -.00000327  00000-0 -84821-3 0  9990
2 54147  87.9181  59.2219 0001600 109.4023 250.7282 13.19724593101047
Source of the keplerian elements: AFSPC